Regional Weather Roundup
Issued by NWS

Home | Current Version | Previous Version | Text Only | Print | Product List | Glossary Off
Versions: 1 2 3 4 5 6 7 8 9 10 11 12 13 14 15 16 17 18 19 20 21 22 23 24 25 26 27 28 29 30 31 32 33 34 35 36 37 38 39 40 41 42 43 44 45 46 47 48 49 50

000
ASUS43 KLOT 031410
RWRIL

ILLINOIS REGIONAL WEATHER ROUNDUP
NATIONAL WEATHER SERVICE CHICAGO/ROMEOVILLE IL
800 AM CST TUE MAR 03 2015

NOTE: "FAIR" INDICATES FEW OR NO CLOUDS BELOW 12,000 FEET WITH NO
SIGNIFICANT WEATHER AND/OR OBSTRUCTIONS TO VISIBILITY.

* THESE STATIONS ARE NOT UNDER NWS QUALITY CONTROL. THEY ALSO MAY NOT
  REPORT WEATHER SUCH AS PRECIPITATION OR FOG.

ILZ001-002-007-009-015-016-024-031500-
NORTHWEST ILLINOIS

CITY           SKY/WX    TMP DP  RH WIND       PRES   REMARKS
MOLINE         FOG       29  26  89 S13       29.74F VSB 1   WCI  19
STERLING*      CLOUDY    30  27  86 S7G16     29.77F WCI  23
SAVANNA*       CLOUDY    30  27  89 S15       29.74F WCI  19
$$

ILZ003-004-008-010-011-017-018-031500-
NORTH CENTRAL ILLINOIS

CITY           SKY/WX    TMP DP  RH WIND       PRES   REMARKS
ROCKFORD       FRZ RAIN  30  26  85 S23G31    29.78F FOG     WCI  17
FREEPORT*      MIX PCPN  28  26  90 S18       29.76F WCI  15
ROCHELLE*      LGT RAIN  29  28  96 S9        29.76F WCI  21
DE KALB*       MIX PCPN  27  26  94 S13       29.79F WCI  17
PERU*          CLOUDY    30  28  94 S20       29.80F FOG     WCI  17
$$

ILZ005-006-012>014-019>023-031500-
NORTHEAST ILLINOIS

CITY           SKY/WX    TMP DP  RH WIND       PRES   REMARKS
CHICAGO-OHARE  FRZ RAIN  28  26  92 S17G25    29.84F FOG     WCI  16
CHICAGO-MIDWAY FRZ RAIN  29  26  89 S16       29.84F FOG     WCI  17
AURORA         FRZ RAIN  29  25  85 SE23G30   29.80F FOG     WCI  15
LANSING*       MIX PCPN  28  26  94 SE14G20   29.88F WCI  16
JOLIET*        DRIZZLE   28  27  94 S9G21     29.86F WCI  20
WAUKEGAN       FRZ RAIN  27  26  96 SE18G30   29.81F FOG     WCI  14
DUPAGE AIRPORT FRZ RAIN  28  26  92 S18       29.83F FOG     WCI  15
KANKAKEE*      MIX PCPN  30  28  94 SE13      29.88F WCI  20
WHEELING       FRZ RAIN  28  25  88 S13       29.85F FOG     WCI  17
MORRIS*        MIX PCPN  29  28  96 S20G28    29.84F WCI  17
ROMEOVILLE*    DRIZZLE   28  27  94 S14       29.85F WCI  17
NORTHERLY ISL    N/A     28  26  92 SE13        N/A  WCI  18
$$

LMZ740>746-031500-
SOUTHERN LAKE MICHIGAN

STATION/POSITION SKY/WX   TEMP    WIND        PRES    VSBY  WAVE
                          AIR SEA DIR/SP/G                  HT/PER
                          (F)     (DEG/KT/KT) (MB)    (MI)  (FT/S)
WAUKEGAN HARBOR            28                   N/A
HARRISON CRIB              27     160/ 10/ 13   N/A
BURNHAM HARBOR             28     150/ 11/ 19   N/A
CALUMET HARBOR             27     150/ 12/ 19   N/A
MICHIGAN CITY              26     130/ 14/ 19   N/A
$$

ILZ025>027-034>036-040-047-049-050-058-095>099-031500-
WEST-CENTRAL ILLINOIS

CITY           SKY/WX    TMP DP  RH WIND       PRES   REMARKS
QUINCY         FRZ RAIN  31  28  89 S13       29.75F FOG     WCI  21
GALESBURG*     MIX PCPN  28  28  98 S13       29.74F WCI  18
MACOMB*        CLOUDY    30  30  99 S17       29.77F WCI  18
JACKSONVILLE*  CLOUDY    34  29  83 S14       29.82F WCI  24
PITTSFIELD*    CLOUDY    32  28  86 SE7       29.80F WCI  26
$$

ILZ028>032-037-038-041>044-048-051>054-059>061-031500-
CENTRAL ILLINOIS

CITY           SKY/WX    TMP DP  RH WIND       PRES   REMARKS
PONTIAC        MIX PCPN  30  29  96 S18       29.86F WCI  18
BLOOMINGTON    LGT SNOW  30  29  96 S16       29.86F VSB 1   WCI  19
DECATUR        CLOUDY    32  30  92 S13       29.88F FOG     WCI  22
PEORIA         FRZ RAIN  30  27  88 S17       29.80F FOG     WCI  18
LACON*         MIX PCPN  29  27  91 S14       29.78F WCI  19
LINCOLN*       LGT RAIN  32  31  94 S10       29.89F WCI  24
SPRINGFIELD    CLOUDY    32  28  85 S12       29.86F FOG     WCI  23
TAYLORVILLE    CLOUDY    32  32 100 S14       29.87F FOG     WCI  22
$$

ILZ033-039-045-046-055>057-062-063-031500-
EAST-CENTRAL ILLINOIS

CITY           SKY/WX    TMP DP  RH WIND       PRES   REMARKS
CHAMPAIGN      LGT SNOW  31  29  92 SE15      29.88F VSB 1   WCI  20
DANVILLE*      CLOUDY    28  26  91 SE12      29.88F FOG     WCI  18
RANTOUL*       MIX PCPN  31  28  92 S13       29.89F WCI  21
MATTOON        MIX PCPN  31  28  89 S16G23    29.87F FOG     WCI  20
PARIS*         CLOUDY    31  30  95 SE15      29.92F FOG     WCI  21
$$

ILZ079-100>102-031500-
SOUTHWEST ILLINOIS

CITY           SKY/WX    TMP DP  RH WIND       PRES   REMARKS
ALTON          DRIZZLE   34  32  93 S15       29.85F FOG     WCI  24
BELLEVILLE     CLOUDY    36  35  96 VRB6      29.87F WCI  31
CAHOKIA*       CLOUDY    36  32  85 S8        29.86F WCI  30
SPARTA*        CLOUDY    36  33  89 S17G28    29.91F WCI  26
$$

ILZ064>066-069>071-074>076-080>082-084>086-088>090-092>094-031500-
SOUTH-CENTRAL ILLINOIS

CITY           SKY/WX    TMP DP  RH WIND       PRES   REMARKS
CARBONDALE     CLOUDY    37  34  89 S13       29.96F WCI  29
CAIRO*         FOG       38  35  87 S6        30.02F VSB 1   WCI  34
EFFINGHAM*     DRIZZLE   33  29  86 SE12      29.92F WCI  24
MARION         CLOUDY    39  37  93 S16       29.98F FOG     WCI  30
MT. VERNON     CLOUDY    36  30  80 S13       29.93F WCI  27
CENTRALIA*     CLOUDY    36  32  87 S17G24    29.90F FOG     WCI  25
SALEM*         CLOUDY    38  35  88 S14G20    29.90F FOG     WCI  30
METROPOLIS*    CLOUDY    38  38 100 SE3       30.01F FOG
$$

ILZ067-068-072-073-078-083-087-091-031500-
SOUTHEAST ILLINOIS

CITY           SKY/WX    TMP DP  RH WIND       PRES   REMARKS
LAWRENCEVILLE  LGT RAIN  34  30  85 S13       29.97F FOG     WCI  25
FLORA*         RAIN      33  32  93 S13       29.94F WCI  24
FAIRFIELD*     CLOUDY    35  32  88 S12       29.94F WCI  27
HARRISBURG*    LGT RAIN  41  39  93 S10       29.99F
ROBINSON*      DRIZZLE   33  29  86 SE12      29.96F WCI  24
CARMI*         LGT RAIN  37  34  90 S12       29.97F WCI  29
$$

ABBREVIATIONS USED IN REMARKS
   TC - TEMPERATURE IN CELSIUS
  WCI - WIND CHILL INDEX
   HX - HEAT INDEX
  VSB - VISIBILITY
$$



USA.gov is the U.S. government's official web portal to all federal, state and local government web resources and services.